User: anonymous   Login
Location: Caltech
(34.1382°N, 118.1253°W)
Time: 02:59:54
(UTC-07:00)
Language:

Lacrosse 5 - Orbit

View from above orbital plane
View from above orbital plane
View from above satellite
View from above satellite

Ground track
Ground track

The orbit data is extracted from the following two-line orbital elements,

1 28646U 05016A   15179.38049486 0.00000000  00000-0  00000-0 0    06
2 28646  57.0110 292.4194 0006000 226.2166 133.7834 14.52197032    07
Epoch (UTC): 28 June 2015 09:07:54
Eccentricity: 0.0006000
inclination: 57.0110°
perigee height: 714 km
apogee height: 723 km
right ascension of ascending node: 292.4194°
argument of perigee: 226.2166°
revolutions per day: 14.52197032
mean anomaly at epoch: 133.7834°
orbit number at epoch: 0

The dashed part of the orbit path shows where the satellite is in the earth's shadow,  

DLR